Location: Ebersheim
(48.3033°N, 7.4991°E)
Time: 18:32:46
(UTC+00:00)

USA 238 DEB - Pass Details

Date: 27 February 2020
Orbit: 1018 x 1194 km, 63.4° (Epoch: 31 March)

Event Time Altitude Azimuth Distance (km) Brightness Sun altitude
Rises 18:06:47 0° 316° (NW) 3,908 7.3 -10.2°
Reaches altitude 10° 18:09:36 10° 323° (NW) 2,976 6.6 -10.7°
Maximum altitude 18:16:19 43° 34° (NE) 1,557 4.3 -11.8°
Enters shadow 18:21:53 16° 99° (E) 2,639 5.1 -12.7°
